ATLAS 5 CENTAUR DEB, 55855

Orbit data source: Space-Track

ATLAS 5 CENTAUR DEB, 55855 is space debris in HEO originally from a launch on Wed, 17 Oct 2018 UTC launched from the Air Force Eastern Test Range (AFETR). Debris objects in space refer to the collection of defunct objects orbiting the Earth. Examples of debris include non-operational satellites, rocket bodies, and fragments generated from explosions, collisions, or faulty payload assembly.

Loading next visibility...
Identifier
55855, 2018-079HH
Orbit
HEO
Country
Flag of USUS
Related business
Flag of USUnited Launch Alliance/Lockheed Martin (US)
Manufacturer
ULA Decatur
Mission
Spacecraft
Bus & Motor
Unknown
Mass
Unknown
Launch date (UTC)
2018-10-17 (8 years ago)
Launch vehicle
Unknown
Launch site
Air Force Eastern Test Range (AFETR)
Object type
Payload
Rocket body
Debris
Shape & HBR
Unknown shape, 1.1 m
Radar Cross Section
RCS unknown

Expand to show TLE details & history
Last TLE update: 1 week ago

TLE from 1 week ago
0 ATLAS 5 CENTAUR DEB
1 55855U 18079HH  26145.05247310 -.00000137  00000-0  00000-0 0  9995
2 55855  13.3194  18.1345 4630311 354.7821   1.8050  1.90890676 17638
Epoch: 2026-05-25T01:15Z
TLE epoch observation values (Epoch: 2026-05-25T01:15:33.675Z)
Latitude
0.00002°
Longitude
116.57947°
Altitude
8,380.967 km
Speed
6.284 km/s
True Right ascension
01h 12m 27s
True Declination
0° 00' 00"
Sunlit
Object was in daylight at epoch
Visualization orbit readout
Latitude
Unknown
Longitude
Unknown
Altitude
Unknown
Speed
Unknown
Apparent Right ascension
Unknown
Apparent Declination
Unknown
Sunlit
N/A
Visualization observer readout
Local Sidereal Time
23:37:45
Azimuth
Unknown
Elevation
Unknown
Doppler factor
Unknown
Orbital elements
Apogee altitude
33,785.473 km
Perigee altitude
8,362.91 km
Semi-major axis
27,452.328 km
Eccentricity
0.46303
Inclination
13.3194°
RAAN
18.1345°
Arg. of periapsis
354.7821°
True anomaly
5.54308°
Mean anomaly
1.805°
Eccentric anomaly
3.3598°
Mean motion
0.47717 °/min
Orbital period
754.45 mins
BSTAR
0
Loading maneuver chart data...
Computing Atmospheric mass density...

Documentation

Showing up to 5 results
|